Tracking 30306 objects as of 23-Apr-2025
HD Live streaming from Space Station
objects crossing your sky now

SL-14 DEB

Track SL-14 DEB now!
10-day predictions


NORAD ID: 29065
Int'l Code: 1978-100AX
Perigee: 1,679.6 km
Apogee: 1,706.5 km
Inclination: 82.5 °
Period: 120.1 minutes
Semi major axis: 8064 km
RCS: 0.015 m2 (small)
Launch date: October 26, 1978
Source: Commonwealth of Independent States (former USSR) (CIS)
Launch site: PLESETSK MISSILE AND SPACE COMPLEX (PKMTR)

Note: This is SATELLITE DEBRIS
Your satellite tracking list
Your tracking list is empty




NASA's NSSDC Master Catalog

Two Line Element Set (TLE):
1 29065U 78100AX  25106.69951462  .00000146  00000-0  17291-2 0  9997
2 29065  82.5372 249.1542 0016652  24.8342 347.1920 11.98878473528064
Source of the keplerian elements: AFSPC